TimeEST,TemperatureF,Dew PointF,Humidity,Sea Level PressureIn,VisibilityMPH,Wind Direction,Wind SpeedMPH,Gust SpeedMPH,PrecipitationIn,Events,Conditions,WindDirDegrees,DateUTC
12:15 AM,50.9,44.1,77,29.96,10.0,Calm,Calm,-,N/A,,Mostly Cloudy,0,2013-02-13 05:15:00
12:35 AM,50.2,43.7,78,29.97,10.0,Calm,Calm,-,N/A,,Overcast,0,2013-02-13 05:35:00
12:55 AM,52.7,41.9,67,29.96,10.0,South,3.5,-,N/A,Rain,Light Rain,170,2013-02-13 05:55:00
1:15 AM,52.7,43.5,71,29.96,10.0,South,3.5,-,N/A,Rain,Light Rain,190,2013-02-13 06:15:00
1:35 AM,50.2,43.2,77,29.96,10.0,South,3.5,-,0.01,Rain,Rain,170,2013-02-13 06:35:00
1:55 AM,50.2,44.6,81,29.95,10.0,South,3.5,-,0.02,Rain,Light Rain,170,2013-02-13 06:55:00
2:15 AM,48.2,42.8,82,29.91,10.0,SE,5.8,-,0.01,Rain,Light Rain,140,2013-02-13 07:15:00
2:35 AM,47.8,42.3,81,29.89,10.0,SSE,3.5,-,0.02,Rain,Light Rain,150,2013-02-13 07:35:00
2:55 AM,47.7,42.1,81,29.89,10.0,Calm,Calm,-,0.04,Rain,Light Rain,0,2013-02-13 07:55:00
3:15 AM,47.7,42.1,81,29.88,10.0,Calm,Calm,-,0.01,Rain,Light Rain,0,2013-02-13 08:15:00
3:35 AM,47.5,41.9,81,29.86,10.0,Calm,Calm,-,0.01,,Scattered Clouds,0,2013-02-13 08:35:00
3:55 AM,47.7,42.1,81,29.87,10.0,Calm,Calm,-,0.01,,Scattered Clouds,0,2013-02-13 08:55:00
4:15 AM,47.7,42.1,81,29.89,4.0,Calm,Calm,-,0.04,Rain,Rain,0,2013-02-13 09:15:00
4:35 AM,47.7,42.1,81,29.86,7.0,Calm,Calm,-,0.08,Rain,Light Rain,0,2013-02-13 09:35:00
4:55 AM,47.7,42.1,81,29.84,10.0,ESE,3.5,-,0.09,Rain,Light Rain,120,2013-02-13 09:55:00
5:15 AM,47.3,41.7,81,29.83,10.0,Calm,Calm,-,0.01,Rain,Light Rain,0,2013-02-13 10:15:00
5:35 AM,47.5,41.9,81,29.83,7.0,NNE,3.5,-,0.02,Rain,Rain,30,2013-02-13 10:35:00
5:55 AM,46.8,41.2,81,29.81,5.0,ESE,4.6,-,0.06,Rain,Rain,120,2013-02-13 10:55:00
6:15 AM,46.6,41.0,81,29.81,7.0,ESE,3.5,-,N/A,,Drizzle,110,2013-02-13 11:15:00
6:35 AM,46.8,41.2,81,29.82,5.0,Calm,Calm,-,0.02,Rain,Rain,0,2013-02-13 11:35:00
6:55 AM,46.4,41.0,81,29.84,3.0,Calm,Calm,-,0.07,,Overcast,0,2013-02-13 11:55:00
7:15 AM,46.4,41.0,81,29.86,5.0,Calm,Calm,-,0.03,Rain,Rain,0,2013-02-13 12:15:00
7:35 AM,46.4,41.0,81,29.84,2.5,Calm,Calm,-,0.05,Rain,Rain,0,2013-02-13 12:35:00
7:55 AM,46.4,41.0,81,29.84,2.5,Calm,Calm,-,0.06,,Drizzle,0,2013-02-13 12:55:00
8:15 AM,46.6,41.0,81,29.85,4.0,NNE,3.5,-,0.02,Rain,Light Rain,20,2013-02-13 13:15:00
8:35 AM,46.8,41.2,81,29.85,3.0,North,4.6,-,0.03,,Drizzle,360,2013-02-13 13:35:00
8:55 AM,46.8,41.2,81,29.83,3.0,North,4.6,-,0.04,,Drizzle,360,2013-02-13 13:55:00
9:15 AM,47.5,41.9,81,29.83,4.0,NNE,4.6,-,0.01,,Light Drizzle,20,2013-02-13 14:15:00
9:35 AM,47.7,42.1,81,29.82,5.0,North,4.6,-,0.01,,Light Drizzle,10,2013-02-13 14:35:00
9:55 AM,47.7,42.1,81,29.80,4.0,NNE,5.8,-,0.02,,Light Drizzle,30,2013-02-13 14:55:00
10:15 AM,47.7,42.1,81,29.78,5.0,NNE,5.8,-,N/A,,Light Drizzle,30,2013-02-13 15:15:00
10:35 AM,48.7,43.2,81,29.78,5.0,NE,3.5,-,N/A,,Haze,50,2013-02-13 15:35:00
10:55 AM,49.6,44.1,81,29.76,3.0,NNE,5.8,-,N/A,,Haze,30,2013-02-13 15:55:00
11:15 AM,50.0,44.4,81,29.76,4.0,North,4.6,-,N/A,,Haze,360,2013-02-13 16:15:00
11:35 AM,50.2,44.6,81,29.73,4.0,ENE,6.9,-,N/A,,Haze,70,2013-02-13 16:35:00
11:55 AM,50.2,44.6,81,29.71,5.0,ENE,3.5,-,N/A,,Haze,70,2013-02-13 16:55:00
12:15 PM,50.2,44.6,81,29.70,10.0,East,6.9,-,N/A,,Overcast,90,2013-02-13 17:15:00
12:35 PM,50.2,44.6,81,29.74,10.0,NW,5.8,-,N/A,,Overcast,320,2013-02-13 17:35:00
12:55 PM,50.2,44.6,81,29.69,5.0,ESE,4.6,-,N/A,,Haze,110,2013-02-13 17:55:00
1:15 PM,50.2,44.6,81,29.68,4.0,ESE,6.9,-,N/A,,Haze,110,2013-02-13 18:15:00
1:35 PM,50.2,44.6,81,29.69,2.5,North,4.6,-,N/A,,Haze,10,2013-02-13 18:35:00
1:55 PM,50.2,44.6,81,29.65,2.5,ESE,8.1,-,N/A,,Haze,110,2013-02-13 18:55:00
2:15 PM,50.2,44.6,81,29.65,2.0,East,6.9,-,N/A,,Haze,100,2013-02-13 19:15:00
2:35 PM,50.2,44.6,81,29.63,1.8,SE,8.1,-,N/A,,Haze,140,2013-02-13 19:35:00
2:55 PM,52.2,46.6,81,29.63,1.8,SE,5.8,-,N/A,Rain,Light Rain,130,2013-02-13 19:55:00
3:15 PM,52.7,47.3,82,29.67,2.5,West,4.6,-,N/A,,Light Drizzle,270,2013-02-13 20:15:00
3:35 PM,52.7,47.3,82,29.63,5.0,SSE,9.2,-,N/A,,Light Drizzle,150,2013-02-13 20:35:00
3:55 PM,52.7,47.3,82,29.62,2.0,SE,3.5,-,N/A,Rain,Light Rain,140,2013-02-13 20:55:00
4:15 PM,52.7,47.3,82,29.64,3.0,West,3.5,-,N/A,Rain,Light Rain,270,2013-02-13 21:15:00
4:35 PM,52.7,47.3,82,29.60,3.0,SSE,6.9,-,N/A,Rain,Light Rain,150,2013-02-13 21:35:00
4:55 PM,52.7,47.3,82,29.66,2.5,WSW,6.9,-,0.01,Rain,Light Rain,240,2013-02-13 21:55:00
5:15 PM,52.7,47.3,82,29.64,5.0,SW,8.1,-,N/A,Rain,Light Rain,230,2013-02-13 22:15:00
5:35 PM,52.7,47.3,82,29.63,7.0,SW,6.9,-,0.01,Rain,Light Rain,230,2013-02-13 22:35:00
5:55 PM,52.7,47.3,82,29.64,10.0,WSW,10.4,-,0.01,Rain,Light Rain,240,2013-02-13 22:55:00
6:15 PM,52.7,47.3,82,29.65,10.0,WSW,10.4,-,N/A,,Overcast,250,2013-02-13 23:15:00
6:35 PM,52.9,47.3,81,29.62,10.0,WSW,10.4,-,N/A,,Mostly Cloudy,250,2013-02-13 23:35:00
6:55 PM,53.1,47.3,81,29.64,10.0,SW,12.7,17.3,N/A,,Mostly Cloudy,230,2013-02-13 23:55:00
7:15 PM,53.6,47.7,80,29.68,10.0,WSW,11.5,24.2,N/A,,Mostly Cloudy,240,2013-02-14 00:15:00
7:35 PM,52.9,47.3,81,29.68,10.0,WSW,13.8,18.4,N/A,,Overcast,250,2013-02-14 00:35:00
7:55 PM,52.7,47.3,82,29.69,10.0,WSW,16.1,21.9,N/A,,Overcast,250,2013-02-14 00:55:00
8:15 PM,52.7,46.9,81,29.68,10.0,WSW,10.4,18.4,N/A,,Mostly Cloudy,250,2013-02-14 01:15:00
8:35 PM,52.7,47.3,82,29.69,10.0,West,10.4,-,N/A,,Mostly Cloudy,260,2013-02-14 01:35:00
8:55 PM,52.7,46.9,81,29.71,10.0,West,10.4,19.6,N/A,,Overcast,270,2013-02-14 01:55:00
9:15 PM,52.7,46.6,80,29.71,10.0,West,13.8,21.9,N/A,,Overcast,260,2013-02-14 02:15:00
9:35 PM,52.7,46.6,80,29.72,10.0,West,10.4,17.3,N/A,,Overcast,270,2013-02-14 02:35:00
9:55 PM,52.7,46.6,80,29.75,10.0,West,9.2,-,N/A,,Overcast,270,2013-02-14 02:55:00
10:15 PM,52.7,46.4,79,29.75,10.0,West,8.1,-,N/A,,Overcast,280,2013-02-14 03:15:00
10:35 PM,52.7,46.4,79,29.74,10.0,West,8.1,16.1,N/A,,Mostly Cloudy,270,2013-02-14 03:35:00
10:55 PM,52.7,46.6,80,29.75,10.0,West,6.9,-,N/A,,Scattered Clouds,270,2013-02-14 03:55:00
11:15 PM,52.7,46.9,81,29.77,10.0,West,6.9,-,N/A,,Scattered Clouds,270,2013-02-14 04:15:00
11:35 PM,51.4,45.7,81,29.76,10.0,West,9.2,-,N/A,,Scattered Clouds,280,2013-02-14 04:35:00
11:55 PM,50.4,44.8,81,29.77,10.0,West,8.1,-,N/A,,Scattered Clouds,270,2013-02-14 04:55:00